Weather in Joensuu

Finland     62°36′19″N   29°45′06″E
temp.,
°C
wind,
m/s
gust,
m/s
humid.,
%
clouds,
%
prec.,
mm/h
press.,
hPa
HPBL,
m
11 may, tue
tue1100:00+7s499590 0.1 1018156
03:00+7s41195100 0.1 1018232
06:00+8s5129662 0.0 1018247
09:00+9s5119494 0.0 1019255
12:00+12ssw6128375 0.0 1020423
15:00+14ssw6137299 0.0 1019663
18:00+14ssw5127371 0.0 1020519
21:00+11s4118367 0.0 1020194
12 may, wed
wed1200:00+9s4109034 0.0 1022152
03:00+8s410895 0.0 1022148
06:00+8s37925 0.0 1023123
09:00+11s47796 0.0 1023201
12:00+15s58610 0.0 1023455
15:00+16s58510 0.0 1022614
18:00+16sse48550 0.0 1021374
21:00+12sse36720 0.0 102191
13 may, thu
thu1300:00+10sse34830 0.0 102157
03:00+9sse22860 0.0 102040
06:00+10sse23860 0.0 101961
09:00+14sse24710 0.0 1019211
12:00+17ssw35625 0.0 1017714
15:00+16s576243 0.3 1016470
18:00+16sse48645 0.1 1015595
21:00+13sse22745 0.1 101520
14 may, fri
fri1400:00+11e11805 0.0 101410
03:00+10ne22775 0.0 101214
06:00+11e3890100 0.0 1011199
09:00+10sse6118984 0.5 1012460
12:00+13sse587233 0.0 1013735
15:00+14s4764100 0.1 1013873
18:00+13s476194 0.0 1012603
21:00+10s3675100 0.0 1012178
15 may, sat
sat1500:00+9se118179 0.0 101216
03:00+9ese228679 0.0 101121
06:00+9e258274 0.0 1010109
09:00+12e247280 0.0 1009202
12:00+15ssw135811 0.0 1008801
15:00+15wnw225741 0.0 10061206
18:00+15nne366566 0.0 1005264
21:00+12n468359 0.6 1004114